• Join FlightAware (Why Join?)
  • Login
  • US Flag 
11:40PM EST


 

Airport Tracker/Info


-or-


 

Live Flight TrackerFlight Track Log ✈ SKW4680 ✈ 06-May-2013 ✈ KEUG - KSLC

Flight Track Log - Related Links

Times and Time Zones

All times are in EDT time to prevent confusion due to time zone crossing. See the SKW4680 flight status page for this flight to view local times or setup timezone preferences in your user account.

Time Position Orientation Groundspeed Altitude Reporting Facility
EDT Latitude Longitude Course Direction KTS MPH feet Rate Location/Type
04:23PM 44.0539 -123.2178 101° East 180 207 2,600  Level Seattle Center
04:24PM 44.0203 -123.1583 128° Southeast 218 251 5,800 2,902 Climbing Seattle Center
04:25PM 44.0021 -122.6946 100° East  Level Estimated
04:25PM 44.0117 -123.0775 98° East 214 246 8,500  Level Seattle Center
04:26PM 43.9711 -122.5656 102° East  Level Estimated
04:26PM 44.0017 -122.9928 99° East 220 253 11,100  Level Seattle Center
04:27PM 43.9399 -122.4367 101° East  Level Estimated
04:27PM 43.9889 -122.8886 100° East 276 318 12,400  Level Seattle Center
04:28PM 43.9087 -122.3080 101° East  Level Estimated
04:28PM 43.9761 -122.7783 99° East 290 334 14,500  Level Seattle Center
04:30PM 43.9494 -122.5450 99° East 308 354 18,500 1,852 Climbing Seattle Center
04:32PM 43.9141 -122.3085 99° East  Level FlightAware Approximate
04:32PM 43.9200 -122.2975 99° East 329 379 22,000  Level Seattle Center
04:33PM 43.9003 -122.1467 100° East 332 382 23,600 1,328 Climbing Seattle Center
04:34PM 43.8864 -122.0161 98° East 342 394 24,700 1,180 Climbing Seattle Center
04:35PM 43.8694 -121.8839 100° East 348 400 26,000 525 Climbing Seattle Center
04:37PM 43.8369 -121.6582 101° East  Level FlightAware Approximate
04:37PM 43.8361 -121.6164 101° East 379 436 26,300  Level Seattle Center
04:38PM 43.8158 -121.4653 100° East 381 438 28,200 1,475 Climbing Seattle Center
04:39PM 43.7983 -121.3275 100° East 367 422 29,300 1,033 Climbing Seattle Center
04:40PM 43.7800 -121.1892 100° East 365 420 30,300 776 Climbing Seattle Center
04:42PM 43.7464 -120.9150 100° East 371 427 31,500 635 Climbing Salt Lake Center
04:43PM 43.7258 -120.7731 101° East 373 429 32,100 541 Climbing Salt Lake Center
04:44PM 43.6867 -120.6369 112° Southeast 378 435 32,600 293 Climbing Salt Lake Center
04:46PM 43.6270 -120.4490 114° Southeast  Level FlightAware Approximate
04:46PM 43.6069 -120.3614 114° Southeast 392 451 33,000  Level Salt Lake Center
04:47PM 43.5864 -120.2139 101° East 394 453 33,000  Level Salt Lake Center
04:48PM 43.5681 -120.0697 100° East 388 447 33,000  Level Salt Lake Center
04:50PM 43.5283 -119.7625 100° East 373 429 33,000  Level Salt Lake Center
04:51PM 43.5094 -119.6261 101° East 367 422 33,000  Level Salt Lake Center
04:52PM 43.4906 -119.4872 101° East 369 425 33,000  Level Salt Lake Center
04:53PM 43.4669 -119.3261 101° East 362 417 33,000  Level Seattle Center
04:54PM 43.4431 -119.1889 103° East 368 423 33,000  Level Seattle Center
04:57PM 43.4098 -119.0006 104° East  Level FlightAware Approximate
04:57PM 43.3683 -118.7692 104° East 371 427 33,000  Level Seattle Center
04:58PM 43.3436 -118.6375 104° East 372 428 33,000  Level Seattle Center
04:59PM 43.3203 -118.5067 104° East 370 426 33,000  Level Salt Lake Center
05:00PM 43.2953 -118.3686 104° East 372 428 33,000  Level Salt Lake Center
05:01PM 43.2675 -118.2167 104° East 385 443 33,000  Level Salt Lake Center
05:02PM 43.2431 -118.0844 104° East 376 433 33,000  Level Salt Lake Center
05:03PM 43.2144 -117.9319 104° East 369 425 33,000  Level Salt Lake Center
05:04PM 43.1892 -117.8006 105° East 370 426 33,000  Level Salt Lake Center
05:05PM 43.1606 -117.6489 104° East 368 423 33,000  Level Salt Lake Center
05:06PM 43.1361 -117.5200 105° East 365 420 33,000  Level Salt Lake Center
05:07PM 43.1119 -117.3894 104° East 370 426 33,000  Level Salt Lake Center
05:08PM 43.0825 -117.2406 105° East 364 419 33,000  Level Salt Lake Center
05:10PM 43.0549 -117.0996 105° East  Level FlightAware Approximate
05:10PM 43.0297 -116.9650 105° East 360 414 33,000  Level Salt Lake Center
05:11PM 43.0050 -116.8397 105° East 357 411 33,000  Level Salt Lake Center
05:13PM 42.9786 -116.7078 105° East  Level FlightAware Approximate
05:14PM 42.9511 -116.5708 105° East 354 407 33,000  Level Salt Lake Center
05:15PM 42.9261 -116.4461 105° East 355 409 33,000  Level Salt Lake Center
05:17PM 42.8749 -116.1964 106° East  Level FlightAware Approximate
05:18PM 42.8422 -116.0325 106° East 356 410 33,000  Level Salt Lake Center
05:20PM 42.7923 -115.7942 106° East  Level FlightAware Approximate
05:23PM 42.7044 -115.3692 107° East 357 411 33,000  Level Salt Lake Center
05:25PM 42.6469 -115.1008 106° East 359 413 33,000  Level Salt Lake Center
05:27PM 42.6005 -114.9040 106° East  Level FlightAware Approximate
05:27PM 42.5938 -114.8845 106° East  Level FlightAware Approximate
05:27PM 42.6464 -114.8644 106° East 361 415 33,000  Level Salt Lake Center
05:28PM 42.5726 -114.7773 107° East  Level FlightAware Approximate
05:29PM 42.7467 -114.6478 58° Northeast 350 403 33,000  Level Salt Lake Center
05:30PM 42.7519 -114.5150 87° East 351 404 33,000 -32 Level Salt Lake Center
05:32PM 42.7265 -114.3215 125° Southeast  Level FlightAware Approximate
05:32PM 42.7011 -114.2478 125° Southeast 348 400 32,900  Level Salt Lake Center
05:33PM 42.6433 -114.1372 125° Southeast 358 412 32,100 -774 Descending Salt Lake Center
05:34PM 42.5819 -114.0244 126° Southeast 372 428 31,300 -780 Descending Salt Lake Center
05:35PM 42.5203 -113.9103 126° Southeast 376 433 30,500 -780 Descending Salt Lake Center
05:36PM 42.4575 -113.7922 126° Southeast 386 444 29,700 -484 Descending Salt Lake Center
05:38PM 42.3801 -113.6470 126° Southeast  Level FlightAware Approximate
05:38PM 42.3286 -113.5533 126° Southeast 398 458 29,000  Level Salt Lake Center
05:39PM 42.2639 -113.4383 127° Southeast 390 449 29,000 -98 Level Salt Lake Center
05:40PM 42.1694 -113.3244 138° Southeast 383 441 28,800 -908 Descending Salt Lake Center
05:42PM 42.0831 -113.2089 133° Southeast  Level FlightAware Approximate
05:42PM 42.0214 -113.1228 133° Southeast 383 441 26,200  Level Salt Lake Center
05:43PM 41.9456 -113.0283 137° Southeast 376 433 25,800 -435 Descending Salt Lake Center
05:44PM 41.8739 -112.9331 135° Southeast 365 420 25,300 -634 Descending Salt Lake Center
05:45PM 41.8028 -112.8397 136° Southeast 361 415 24,500 -1,415 Descending Salt Lake Center
05:46PM 41.7322 -112.7489 136° Southeast 353 406 22,400 -2,226 Descending Salt Lake Center
05:47PM 41.6444 -112.6369 136° Southeast 363 418 19,900 -2,195 Descending Salt Lake Center
05:48PM 41.5733 -112.5436 136° Southeast 356 410 17,900 -1,512 Descending Salt Lake Center
05:49PM 41.5017 -112.4619 140° Southeast 341 392 16,800 -1,113 Descending Salt Lake Center
05:51PM 41.4222 -112.4019 150° Southeast 330 380 15,600 -1,228 Descending Salt Lake Center
05:52PM 41.3333 -112.3325 150° Southeast 329 379 14,200 -976 Descending Salt Lake Center
05:53PM 41.2653 -112.2889 154° Southeast 316 364 13,600 -569 Descending Salt Lake Center
05:54PM 41.1997 -112.2408 151° Southeast 254 292 13,100 -305 Descending Salt Lake Center
05:55PM 41.1414 -112.1953 150° Southeast 244 281 13,000 -47 Descending Salt Lake Center
05:56PM 41.0744 -112.1481 152° Southeast 242 278 13,000  Level Salt Lake Center
05:57PM 41.0111 -112.1342 171° South 245 282 13,000  Level Salt Lake Center
05:58PM 40.9414 -112.1181 170° South 249 287 13,000  Level Salt Lake Center
05:59PM 40.8725 -112.1072 173° South 253 291 13,000  Level Salt Lake Center
06:00PM 40.8022 -112.0997 175° South 251 289 13,000  Level Salt Lake Center
06:02PM 40.8092 -112.2711 273° West 268 308 13,000 64 Level Salt Lake Center
06:03PM 40.8492 -112.3531 303° West 273 314 13,200 195 Climbing Salt Lake Center
06:05PM 40.8161 -112.1477 102° East  Level Estimated
06:07PM 41.1361 -112.4717 102° East 259 298 14,000  Level Salt Lake Center
06:08PM 41.2150 -112.4892 351° North 269 310 14,000  Level Salt Lake Center
06:09PM 41.2719 -112.4503 27° Northeast 257 296 14,000 -371 Level Salt Lake Center
06:11PM 41.1570 -112.3372 159° South  Level Estimated
06:11PM 41.3100 -112.2722 159° South 233 268 12,800  Level Salt Lake Center
06:12PM 40.7884 -111.9778 102° East  Level Estimated
06:12PM 41.2886 -112.1886 109° East 240 276 11,500  Level Salt Lake Center
06:13PM 41.2442 -112.1211 131° Southeast 241 277 11,000 -288 Descending Salt Lake Center
06:14PM 41.2119 -112.0714 131° Southeast 238 274 11,000  Level Salt Lake Center
06:15PM 41.1703 -112.0117 133° Southeast 237 273 11,000  Level Salt Lake Center
06:16PM 41.1175 -111.9614 144° Southeast 238 274 11,000 -207 Level Salt Lake Center
06:16PM 41.0964 -111.9619 181° South 236 272 10,700 -1,161 Descending Salt Lake Center
06:17PM 41.0506 -111.9614 179° South 234 269 9,800 -1,645 Descending Salt Lake Center
06:17PM 41.0206 -111.9617 180° South 232 267 9,000 -1,700 Descending Salt Lake Center
06:18PM 40.9864 -111.9633 182° South 231 266 8,100 -1,548 Descending Salt Lake Center
06:18PM 40.9631 -111.9622 178° South 206 237 7,400 -1,254 Descending Salt Lake Center
06:19PM 40.9283 -111.9633 181° South 183 211 6,700 -984 Descending Salt Lake Center
06:19PM 40.9128 -111.9625 178° South 182 209 6,400 -847 Descending Salt Lake Center
06:20PM 40.8631 -111.9622 180° South 179 206 5,500 -732 Descending Salt Lake Center
06:21PM 40.8269 -111.9625 180° South 133 153 4,900 -634 Descending Salt Lake Center
06:22PM 40.7875 -111.9619 179° South 120 138 4,200 -677 Descending Salt Lake Center